Regional Weather Roundup
Issued by NWS Jackson, KY

Home | Current Version | Previous Version | Text Only | Print | Product List | Glossary On
Versions: 1 2 3 4 5 6 7 8 9 10 11 12 13 14 15 16 17 18 19 20 21 22 23 24 25 26 27 28 29 30 31 32 33 34 35 36 37 38 39 40 41 42 43 44 45 46 47 48 49 50
000
ASUS43 KJKL 230510
RWRJKL

EAST KENTUCKY HOURLY WEATHER ROUNDUP
NATIONAL WEATHER SERVICE JACKSON KY
1200 AM EST MON JAN 23 2017

NOTE: "FAIR" INDICATES FEW OR NO CLOUDS BELOW 12,000 FEET WITH
NO SIGNIFICANT WEATHER AND/OR OBSTRUCTIONS TO VISIBILITY.

* THESE REPORTS ARE NOT UNDER NWS QUALITY CONTROL AND MAY NOT
  REPORT WEATHER SUCH AS PRECIPITATION AND FOG.

KYZ079-080-083-085-087-088-110-112-115-119-120-230600
...EASTERN KENTUCKY...

CITY           SKY/WX    TMP DP  RH WIND       PRES   REMARKS
JACKSON        LGT RAIN  53  51  93 NE7       29.32S FOG
LONDON         LGT RAIN  54  51  90 NE10      29.27F
SOMERSET*      DRIZZLE   54  54 100 NE13      29.28F
MONTICELLO*    CLOUDY    54  53  97 N17G25    29.28F
WILLIAMSBURG*  CLOUDY    54  54 100 NE9       29.25F
MIDDLESBORO*   RAIN      54  54 100 CALM      29.25F
HARLAN APT*    CLOUDY    52  52 100 NE3       29.27F VSB 3/4
PIKE CO APT*   LGT RAIN  53  52  95 NE10      29.33F
BIG SANDY APT* RAIN      53  53 100 NE5       29.34S
MOREHEAD APT*  CLOUDY    54  50  87 NE8       29.36F
ASHLAND*       CLOUDY    55  52  88 E7        29.36S
$$

KYZ035-036-041-042-044-050-067-078-099-230600
...CENTRAL KENTUCKY...

CITY           SKY/WX    TMP DP  RH WIND       PRES   REMARKS
MT STERLING*   LGT RAIN  54  52  94 E14       29.36R
FLEMING/MASON* LGT RAIN  53  50  91 NE13      29.38S
DANVILLE*      LGT RAIN  52  50  93 NE10      29.33F
LEXINGTON      CLOUDY    54  50  86 N15       29.34F
FRANKFORT      CLOUDY    56  48  74 N12       29.35F
LOUISVILLE     LGT RAIN  58  48  69 N15       29.38S
LEBANON*       CLOUDY    55  50  82 N8G18     29.33F
GLASGOW*       CLOUDY    56  51  82 N9G16     29.31S
BOWLING GREEN  CLOUDY    57  52  83 N12G21    29.34R
$$

KYZ091>093-OHZ055-061-077-WVZ005-015-034-035-042-230600
...SOUTHERN OHIO/WEST VIRGINIA...

CITY           SKY/WX    TMP DP  RH WIND       PRES   REMARKS
COVINGTON      CLOUDY    56  49  77 N17       29.41F
COLUMBUS       CLOUDY    56  48  74 N9        29.45F
DAYTON         MOCLDY    50  47  89 N15       29.48F
WILMINGTON     CLOUDY    52  48  86 NE15      29.41F
HUNTINGTON     LGT RAIN  55  49  80 NE6       29.37R
CHARLESTON     CLOUDY    54  49  83 NE8       29.38F
BECKLEY        CLOUDY    50  45  83 E22G28    29.38F
BLUEFIELD      LGT RAIN  46  44  93 E12G25    29.36F
LOGAN CO APT*  CLOUDY    55  50  82 VRB6G12   29.36R
$$

VAZ002-007-008-TNZ017-027-036-066-071-230600
...SOUTHWEST VIRGINIA/EAST TENNESSEE...

CITY           SKY/WX    TMP DP  RH WIND       PRES   REMARKS
WISE*          CLOUDY    52  45  76 E7        29.31F
JONESVILLE*    LGT RAIN  54  54 100 NE8       29.25F
ABINGDON*      DRIZZLE   53  49  86 E22       29.30R
BRISTOL        LGT RAIN  55  48  77 NE10      29.23F
MORRISTOWN*    MOCLDY    54  54 100 E7G14     29.20S FOG
SEVIERVILLE*   CLOUDY    52  50  93 N8        29.19S
KNOXVILLE      LGT RAIN  54  52  93 W8        29.17F
LAFOLLETTE*    MOCLDY    55  54  94 NE6       29.24F FOG
OAK RIDGE      RAIN      55  51  86 N9        29.19F FOG
CROSSVILLE     HVY RAIN  52  50  93 E7        29.24F FOG
NASHVILLE      LGT RAIN  56  53  90 N14       29.30R
$$

...KEY TO REMARKS...
VSB - VISIBILITY IN MILES
WCI - WIND CHILL INDEX
HX  - HEAT INDEX

$$



USA.gov is the U.S. government's official web portal to all federal, state and local government web resources and services.